Location: La Silve
(44.2414°N, 5.8889°E)
Time: 17:46:35
(UTC+00:00)

H-2A R/B - Pass Details

Date: 01 December 2020
Orbit: 499 x 540 km, 97.3° (Epoch: 22 January)

Event Time Altitude Azimuth Distance (km) Brightness Sun altitude
Rises 16:24:22 0° 168° (SSE) 2,654 6.5 -4.9°
Reaches altitude 10° 16:26:27 10° 170° (S) 1,776 5.6 -5.2°
Maximum altitude 16:30:17 82° 258° (WSW) 547 2.9 -5.8°
Drops below altitude 10° 16:34:13 10° 346° (NNW) 1,808 5.4 -6.5°
Sets 16:36:21 0° 347° (NNW) 2,708 6.2 -6.8°
